Location: Kellogg
(38.0159°N, 90.0546°W)
Time: 08:07:55
(UTC+00:00)

Vanguard 1 Rocket - Pass Details

Date: 15 September 2024
Orbit: 650 x 4218 km, 34.3° (Epoch: 05 October)

Event Time Altitude Azimuth Distance (km) Brightness Sun altitude
Rises 17:35:07 0° 286° (WNW) 8,363 12.2 54.3°
Reaches altitude 10° 17:42:48 10° 275° (W) 7,425 12.1 54.5°
Maximum altitude 18:00:04 24° 233° (SW) 5,831 12.2 54.6°
Drops below altitude 10° 18:14:08 10° 187° (S) 5,891 12.3 54.3°
Sets 18:19:22 0° 174° (S) 6,362 12.2 54.2°
